Regional Weather Roundup
Issued by NWS Jackson, KY

Home | Current Version | Previous Version | Text Only | Print | Product List | Glossary Off
Versions: 1 2 3 4 5 6 7 8 9 10 11 12 13 14 15 16 17 18 19 20 21 22 23 24 25 26 27 28 29 30 31 32 33 34 35 36 37 38 39 40 41 42 43 44 45 46 47 48 49 50

076
ASUS43 KJKL 042310
RWRJKL

EAST KENTUCKY HOURLY WEATHER ROUNDUP
NATIONAL WEATHER SERVICE JACKSON KY
700 PM EDT WED MAY 04 2016

NOTE: "FAIR" INDICATES FEW OR NO CLOUDS BELOW 12,000 FEET WITH
NO SIGNIFICANT WEATHER AND/OR OBSTRUCTIONS TO VISIBILITY.

* THESE REPORTS ARE NOT UNDER NWS QUALITY CONTROL AND MAY NOT
  REPORT WEATHER SUCH AS PRECIPITATION AND FOG.

KYZ079-080-083-085-087-088-110-112-115-119-120-050000
...EASTERN KENTUCKY...

CITY           SKY/WX    TMP DP  RH WIND       PRES   REMARKS
JACKSON        PTSUNNY   51  47  86 CALM      29.69S
LONDON         CLOUDY    48  46  93 N3        29.70F
SOMERSET*      MOSUNNY   52  46  82 W3        29.72R
MONTICELLO*    CLOUDY    58  50  75 NW12G20   29.73R
WILLIAMSBURG*  CLOUDY    46  46 100 S3        29.73R
MIDDLESBORO*   CLOUDY    56  51  84 N3        29.70S
HARLAN APT*    MOCLDY    52  46  82 CALM      29.70S
HAZARD APT*    CLOUDY    54  50  87 SW5       29.69F
BLACK MTN*       N/A     43  41  93 SW3         N/A
PIKE CO APT*   LGT RAIN  50  49  95 SE5       29.69F
BIG SANDY APT* RAIN      52  49  92 CALM      29.69S
MOREHEAD APT*  MOCLDY    54  48  82 NW5       29.70S
$$

KYZ035-036-041-042-044-050-067-078-099-050000
...CENTRAL KENTUCKY...

CITY           SKY/WX    TMP DP  RH WIND       PRES   REMARKS
MT STERLING*   PTSUNNY   54  50  87 CALM      29.70S
FLEMING/MASON* PTSUNNY   53  47  82 NW6       29.69S
DANVILLE*      MOSUNNY   54  45  71 NW12      29.71S
RICHMOND*      PTSUNNY   55  48  76 NW8       29.69S
LEXINGTON      MOSUNNY   57  45  64 N13       29.69S
FRANKFORT      MOSUNNY   58  43  57 NW12G17   29.69S
LOUISVILLE     MOSUNNY   61  43  51 N12       29.71S
LEBANON*         N/A     55  45  67 NW7       29.72R
BOWLING GREEN  MOSUNNY   65  41  41 NW10G20   29.73R
$$

KYZ091>093-OHZ055-061-077-WVZ005-015-034-035-042-050000
...SOUTHERN OHIO/WEST VIRGINIA...

CITY           SKY/WX    TMP DP  RH WIND       PRES   REMARKS
COVINGTON      MOSUNNY   56  39  53 NW20G25   29.70R
COLUMBUS       PTSUNNY   51  48  89 N6        29.65S
DAYTON         CLOUDY    49  39  68 NW20G25   29.71R
WILMINGTON     CLOUDY    53  41  63 NW17      29.68R
HUNTINGTON     LGT RAIN  53  48  83 W5        29.68S
CHARLESTON     LGT RAIN  54  47  77 W8        29.69R
PINEVILLE*     CLOUDY    59  40  49 MISG      29.70S
BECKLEY        CLOUDY    55  43  63 SE3       29.66S
$$

VAZ002-007-008-TNZ017-027-036-066-071-050000
...SOUTHWEST VIRGINIA/EAST TENNESSEE...

CITY           SKY/WX    TMP DP  RH WIND       PRES   REMARKS
WISE*          LGT RAIN  50  41  71 W10       29.71F
BRISTOL        CLOUDY    61  39  44 W9        29.68R
MORRISTOWN*    PTCLDY    55  48  76 W6        29.70F
SEVIERVILLE*   CLOUDY    54  46  76 NW5       29.73R
KNOXVILLE      LGT RAIN  55  49  80 S7        29.72S
OAK RIDGE      CLOUDY    56  51  84 S6        29.72F
CROSSVILLE     MOSUNNY   56  49  77 W6        29.71F
NASHVILLE      PTSUNNY   60  48  64 NW6       29.75S
$$

...KEY TO REMARKS...
VSB - VISIBILITY IN MILES
WCI - WIND CHILL INDEX
HX  - HEAT INDEX

$$




USA.gov is the U.S. government's official web portal to all federal, state and local government web resources and services.